Vertical_Velocity
-1 -0 2 1 2 2 1 -1 -0 1 0 -3 1 3 -1 6 4 5 -1 -2 -2 4 -0 4 0 -0 5 2 0 -2 -7 -2 -3 -5 -7 -4 -1 3 -3 -2 2 -5 -2 -4 -1
-1 1 1 2 1 1 -2 -2 0 2 -0 -2 8 -1 3 2 3 -0 2 1 -4 1 -1 1 1 1 -4 -3 -2 -0 -6 -5 2 -0 8 -1 -2 0 1 -1 -0 3 -1 1 4
-1 2 2 -0 1 -1 -1 -1 1 -1 -6 4 -0 -2 6 -1 -5 1 -1 -5 4 -2 6 10 -2 -0 0 4 2 -3 -7 -1 3 -3 -0 1 4 1 2 -0 -3 -2 5 -5 5
0 1 -1 1 0 -0 -0 2 3 -1 4 -2 3 -2 -1 -2 5 2 -0 1 -4 -2 -7 -1 -2 -5 -3 -6 1 -0 -1 -1 -2 -1 -1 2 4 1 3 -2 3 -1 6 -1 -5
0 2 1 -0 -1 1 2 2 2 0 -0 0 -1 -1 -1 2 3 5 3 -4 4 3 2 -4 0 0 -3 3 -8 -1 -1 1 -1 2 1 1 0 -0 -1 2 3 5 -2 -2 -0
3 1 -2 0 2 2 -0 -2 0 -1 -1 -1 2 1 5 5 1 0 -1 -3 -12 7 13 3 -10 6 -3 -1 -2 -1 1 3 6 5 1 -3 -7 0 4 1 3 -1 3 1 2
-1 -1 2 2 2 -0 -0 1 0 2 0 4 3 4 4 -0 2 -4 -3 0 2 -6 3 -1 2 -5 -6 -3 -4 4 -4 -3 -2 6 -3 -2 -1 1 -0 -4 -4 3 1 1 2
2 1 2 3 -1 0 0 -1 -0 0 3 4 4 4 -3 -2 -1 3 -2 -2 7 5 5 -1 -0 3 -1 -2 -7 -0 -1 -4 1 -1 1 -3 2 5 1 2 5 0 -0 -1 1
4 2 -0 -1 2 1 -1 -0 1 -0 2 5 4 0 -2 1 2 -1 -2 -3 -0 0 -1 -3 -3 0 3 -2 -2 -2 -1 -1 -0 -0 -1 0 -3 5 1 -3 1 -2 1 0 1
1 1 2 2 -0 -1 1 2 3 4 3 -2 -2 -2 0 1 -1 -1 0 0 -1 -1 -0 2 0 -1 -2 -3 -1 -0 -0 3 2 -1 1 1 -2 -1 -4 -2 -0 1 1 5 2
2 2 2 1 1 3 3 1 0 -0 0 -1 -1 -2 0 -1 -1 0 3 1 1 1 -3 -2 -2 -3 -3 -3 -1 -3 0 -0 0 -1 -3 1 -2 3 0 3 5 -1 2 4 7
2 1 1 -0 0 0 0 -0 -0 0 -1 0 2 2 1 -0 -1 -1 -0 1 1 2 2 1 -2 0 -1 -0 1 -0 -1 -3 -3 1 -3 1 2 0 2 1 -0 0 -1 0 -0
1 0 -1 -0 1 0 1 0 1 -1 -5 -1 -1 -1 -0 -0 -1 -2 1 1 1 -2 -4 -1 1 -2 -0 -2 -1 -2 -1 0 -1 -2 -2 1 2 2 0 -1 -2 -2 -3 -2 2
-1 -1 0 1 -0 -0 -0 -0 -1 -1 -2 0 -1 0 -1 -0 -2 -1 -1 -2 -3 -1 1 -0 2 -2 -3 -4 -3 -2 -0 0 0 -0 -1 0 -2 -2 0 1 0 0 0 3 -2
1 -0 1 3 2 0 -0 -0 -0 0 -9 -0 -0 3 -1 -1 -0 -1 -2 -2 -1 -0 -1 -0 -1 -2 -2 -4 -4 -3 -0 0 -0 2 -0 -1 1 3 0 -2 0 -1 -1 -2 0
1 2 2 1 2 1 0 -1 -2 -5 -3 -1 1 -1 -1 -1 -2 -2 -4 1 -1 -1 -1 -0 -1 -0 -2 0 0 -2 5 -0 1 1 -2 -0 -1 -0 -1 3 -3 -3 5 1 3
2 1 2 1 0 0 -0 -1 -4 -4 2 3 -1 1 -1 -2 -1 -3 -4 -2 -3 -2 -2 -0 1 0 -0 -2 0 -1 -2 -2 -5 -5 -5 0 -0 3 1 -2 -4 4 5 3 2
3 1 1 -1 1 -0 -2 -3 -2 1 0 0 -1 -1 -4 -2 -2 -3 -1 -3 1 0 -1 -1 0 -1 -1 -2 -1 -5 -4 -2 -3 -2 -4 0 -1 8 0 3 6 5 -0 0 -3
1 1 0 -0 1 -0 -1 -2 -1 0 -1 -1 1 -0 -1 -1 -1 -1 -2 -3 -2 -3 -1 -1 -0 -1 -2 0 -1 -2 -3 -1 -2 -0 -1 0 4 5 -3 -0 1 -1 -4 -2 -2
2 1 1 0 0 0 -0 -2 -3 -1 -1 1 1 -1 -0 0 1 1 -0 -2 -2 -1 -2 -1 -1 1 -1 1 -2 -1 -1 -1 -2 -4 -2 -4 0 -0 8 -2 -2 -3 -2 -2 -1
2 1 -1 0 0 0 0 -2 -2 0 -1 0 -1 -2 0 -0 -1 -1 0 1 0 0 1 0 -1 -1 2 3 0 1 -1 -2 -1 2 -3 -1 -9 1 5 7 3 -1 1 3 4
1 -0 1 1 -0 0 -1 -1 1 2 1 -2 -1 -1 -1 -1 -2 -2 -2 -2 0 -1 -3 -1 -2 -4 0 1 -1 1 -0 0 -4 -2 -1 2 -33 3 -2 -2 -6 -2 1 2 0
0 1 2 0 -3 -3 -1 -1 -1 1 -1 -1 -1 0 0 -0 -0 0 -1 -1 -1 -1 -2 -4 -1 -4 -5 5 2 1 1 2 2 2 -7 5 -22 2 1 -3 -1 -5 -2 -3 -3
2 -1 1 -0 -1 2 1 -1 -2 -1 -1 0 -2 -2 -1 -1 0 1 -0 -0 -1 -1 -1 -2 -1 -3 -4 -3 2 2 6 5 7 3 -5 -15 -16 0 -3 -1 1 1 4 1 4
2 -2 -2 -4 -1 -0 -1 -0 -1 -3 -2 -2 -1 -1 -1 -1 -2 -0 1 1 -1 -2 -0 -1 -1 -1 -0 -6 -8 -3 -3 10 -0 6 3 -15 -3 9 5 4 1 -0 4 -4 -5
1 -2 -1 -1 0 -1 -1 -2 -2 -1 -2 -2 -1 -0 -1 -3 -2 -3 -0 2 -2 -1 2 1 -3 -1 -4 2 -3 -13 13 0 4 6 2 10 -20 17 2 5 1 4 1 1 3
0 -1 -0 1 -0 0 -2 -1 -2 -0 -1 -1 -1 -2 -1 -2 -3 -2 -2 -2 -2 -1 1 -3 -2 -1 -14 2 -6 -11 -1 0 -2 -1 6 0 -3 5 4 3 -4 4 0 -5 -1
Height
3106 3108 3110 3112 3114 3116 3119 3122 3123 3125 3127 3130 3133 3132 3133 3135 3137 3138 3137 3139 3141 3141 3141 3143 3145 3147 3147 3147 3148 3150 3151 3154 3158 3158 3160 3161 3163 3163 3162 3163 3163 3162 3162 3163 3163
3104 3106 3108 3110 3113 3115 3118 3120 3122 3124 3129 3130 3131 3131 3135 3138 3139 3139 3139 3140 3143 3144 3144 3146 3147 3148 3148 3150 3150 3151 3154 3157 3159 3160 3160 3160 3163 3163 3162 3160 3163 3162 3160 3161 3160
3102 3104 3106 3109 3111 3114 3117 3120 3122 3126 3129 3130 3130 3133 3136 3138 3140 3140 3141 3141 3145 3145 3146 3148 3148 3148 3150 3150 3152 3153 3157 3157 3157 3159 3159 3161 3162 3161 3161 3160 3160 3163 3159 3161 3160
3100 3102 3105 3108 3111 3115 3117 3120 3124 3127 3129 3130 3131 3134 3138 3140 3143 3141 3142 3144 3145 3149 3146 3150 3149 3151 3152 3152 3153 3155 3156 3158 3157 3161 3160 3160 3160 3159 3161 3162 3162 3161 3160 3160 3160
3099 3102 3105 3108 3111 3114 3118 3122 3125 3127 3129 3131 3133 3136 3139 3141 3140 3141 3142 3145 3148 3148 3149 3150 3152 3152 3152 3153 3155 3160 3157 3159 3160 3161 3161 3159 3162 3162 3162 3160 3160 3160 3159 3159 3160
3100 3102 3106 3109 3112 3116 3120 3123 3126 3129 3131 3133 3135 3137 3140 3141 3140 3141 3143 3147 3150 3151 3150 3153 3153 3153 3153 3154 3159 3159 3158 3158 3161 3160 3160 3160 3162 3161 3161 3159 3160 3160 3160 3159 3159
3101 3105 3108 3111 3115 3119 3122 3126 3128 3131 3133 3135 3136 3138 3139 3142 3141 3142 3146 3148 3150 3152 3153 3154 3154 3156 3154 3155 3160 3158 3158 3158 3162 3158 3159 3159 3160 3160 3158 3157 3158 3158 3159 3159 3158
3105 3108 3111 3115 3118 3121 3125 3128 3131 3133 3135 3136 3138 3139 3141 3142 3143 3146 3147 3149 3151 3152 3155 3155 3157 3156 3156 3154 3157 3158 3159 3156 3160 3158 3158 3159 3157 3158 3156 3155 3155 3156 3156 3157 3158
3108 3112 3115 3118 3121 3124 3127 3130 3133 3136 3137 3139 3141 3142 3144 3145 3146 3147 3149 3152 3153 3155 3156 3157 3158 3157 3156 3156 3158 3158 3159 3158 3159 3158 3157 3157 3154 3154 3152 3151 3152 3154 3154 3155 3155
3113 3116 3118 3121 3123 3126 3130 3133 3135 3138 3140 3141 3142 3147 3147 3148 3149 3149 3151 3152 3154 3155 3157 3158 3158 3156 3156 3157 3158 3158 3157 3157 3156 3156 3155 3154 3152 3150 3149 3149 3150 3152 3152 3153 3153
3115 3118 3121 3123 3126 3128 3131 3134 3140 3142 3142 3143 3145 3146 3148 3149 3150 3150 3152 3153 3155 3156 3157 3158 3158 3157 3157 3157 3157 3157 3156 3155 3155 3154 3152 3151 3149 3147 3146 3147 3150 3150 3150 3150 3151
3118 3121 3123 3125 3128 3131 3134 3137 3140 3143 3144 3145 3146 3148 3149 3150 3151 3152 3153 3155 3155 3155 3156 3158 3157 3157 3157 3157 3157 3156 3155 3155 3154 3153 3151 3149 3149 3147 3146 3146 3147 3148 3148 3149 3150
3120 3122 3125 3128 3131 3134 3136 3139 3141 3144 3146 3148 3149 3150 3151 3152 3151 3152 3153 3153 3153 3154 3155 3156 3158 3157 3157 3157 3156 3155 3154 3153 3152 3149 3149 3148 3148 3147 3146 3145 3146 3147 3147 3148 3148
3121 3124 3127 3130 3135 3135 3138 3140 3143 3145 3148 3152 3151 3152 3152 3151 3153 3152 3152 3154 3154 3155 3156 3157 3157 3157 3157 3156 3155 3154 3152 3149 3148 3148 3148 3147 3147 3146 3145 3145 3145 3145 3146 3146 3146
3123 3125 3128 3131 3134 3137 3140 3142 3144 3146 3149 3155 3153 3154 3153 3154 3155 3154 3154 3154 3154 3154 3157 3158 3157 3157 3157 3156 3154 3153 3149 3146 3145 3144 3145 3147 3147 3147 3145 3144 3143 3144 3145 3144 3144
3124 3126 3129 3132 3135 3137 3139 3142 3145 3149 3151 3154 3154 3155 3155 3154 3154 3155 3154 3155 3155 3156 3156 3157 3157 3157 3156 3155 3152 3150 3147 3144 3144 3144 3145 3147 3149 3146 3144 3143 3142 3143 3143 3142 3141
3125 3128 3131 3133 3135 3137 3140 3143 3147 3147 3153 3155 3155 3155 3155 3156 3156 3156 3156 3156 3156 3157 3157 3157 3157 3156 3155 3154 3152 3150 3146 3145 3148 3148 3148 3146 3146 3144 3143 3142 3142 3142 3142 3140 3138
3126 3129 3131 3133 3136 3139 3141 3145 3146 3149 3151 3153 3154 3156 3156 3157 3157 3157 3158 3157 3157 3156 3155 3156 3156 3155 3155 3154 3153 3151 3150 3150 3155 3155 3148 3144 3143 3144 3141 3141 3141 3140 3138 3137 3136
3128 3130 3132 3134 3137 3140 3143 3145 3146 3149 3151 3153 3155 3156 3157 3157 3158 3158 3157 3157 3157 3156 3157 3155 3155 3155 3154 3153 3154 3152 3152 3153 3151 3151 3150 3143 3142 3143 3138 3138 3137 3136 3135 3132 3130
3129 3131 3133 3136 3138 3141 3143 3144 3145 3148 3150 3152 3154 3156 3156 3157 3158 3157 3157 3158 3158 3157 3156 3156 3155 3155 3153 3153 3153 3153 3154 3153 3152 3155 3154 3143 3140 3139 3137 3135 3133 3130 3129 3127 3125
3130 3132 3134 3136 3139 3141 3142 3143 3145 3148 3150 3152 3153 3154 3156 3156 3157 3157 3158 3159 3158 3158 3156 3155 3155 3156 3154 3152 3152 3153 3152 3153 3153 3152 3152 3151 3141 3138 3135 3133 3130 3128 3125 3122 3120
3129 3132 3134 3136 3140 3140 3142 3143 3146 3147 3149 3150 3152 3154 3155 3156 3156 3157 3158 3158 3158 3157 3156 3156 3154 3153 3152 3151 3151 3151 3151 3151 3150 3152 3151 3148 3136 3133 3132 3129 3128 3125 3122 3118 3115
3129 3131 3134 3136 3138 3140 3142 3143 3145 3147 3148 3150 3152 3154 3154 3156 3157 3156 3157 3157 3157 3157 3156 3156 3154 3153 3151 3153 3150 3149 3148 3147 3147 3146 3146 3146 3134 3130 3130 3128 3124 3121 3117 3113 3110
3130 3131 3134 3136 3138 3140 3141 3143 3145 3147 3148 3150 3152 3153 3154 3155 3156 3156 3157 3157 3156 3156 3155 3154 3153 3154 3154 3152 3150 3145 3144 3144 3144 3142 3138 3133 3127 3125 3125 3121 3118 3115 3110 3107 3104
3129 3130 3132 3134 3137 3139 3141 3143 3145 3146 3149 3150 3152 3153 3154 3155 3155 3155 3155 3155 3154 3153 3152 3152 3150 3150 3148 3147 3144 3139 3137 3137 3135 3134 3132 3125 3122 3119 3117 3113 3110 3108 3104 3100 3093
3128 3130 3132 3134 3136 3138 3141 3143 3145 3146 3148 3150 3151 3152 3152 3153 3154 3154 3153 3153 3152 3151 3150 3149 3147 3144 3141 3139 3139 3133 3130 3129 3130 3128 3122 3119 3115 3116 3111 3106 3103 3100 3094 3088 3082
3127 3129 3132 3134 3136 3138 3140 3142 3143 3145 3147 3148 3149 3150 3150 3151 3151 3151 3151 3151 3149 3148 3146 3145 3144 3142 3138 3136 3135 3129 3126 3125 3124 3123 3119 3114 3112 3108 3104 3100 3095 3089 3085 3081 3076